Showing default

NUVIEW BRAVO, 62457

Orbit data source: Space-Track

NUVIEW BRAVO, 62457 is a UK payload satellite in GEO that was launched on Sun, 29 Dec 2024 UTC via an FALCON 9 launch vehicle from the Air Force Eastern Test Range (AFETR). Payload-class satellites include a variety of spacecraft equipped with specific instruments for various scientific and technological missions. These include communications satellites like Starlink; space stations such as the ISS; scientific satellites like the Hubble; Earth observation satellites from companies like Planet Labs, Umbra, and HawkEye 360; GPS; miniature CubeSats for education and research; and military/defense satellites.

Loading next visibility...
Identifier
62457, 2024-252D
Orbit
GEO
Country
Flag of UKUK
Related business
Manufacturer
Astranis
Mission
Operational Commercial Communications
Bus & Motor
MICROGEO, EP
Mass
400 kg wet, 400 kg dry
Launch date (UTC)
2024-12-29 (1 year ago)
Launch vehicle
FALCON 9
Launch site
Air Force Eastern Test Range (AFETR)
Object type
Payload
Rocket body
Debris
Shape & HBR
Box + 22 Pan, 5.0 m
Radar Cross Section
41.175 m²

Expand to show TLE details & history
Last TLE update: 13 hours ago

TLE from 13 hours ago
0 NUVIEW BRAVO
1 62457U 24252D   26168.53169531 -.00000219  00000-0  00000+0 0  9997
2 62457   0.0698 152.8136 0001951 330.9762 250.2791  1.00270329  3790
Epoch: 2026-06-17T12:45Z
TLE epoch observation values (Epoch: 2026-06-17T12:45:38.474Z)
Latitude
-0.04272°
Longitude
-83.14052°
Altitude
35,789.242 km
Speed
3.075 km/s
True Right ascension
00h 56m 13s
True Declination
0° 02' 34"
Sunlit
Object was in daylight at epoch
Visualization orbit readout
Latitude
Unknown
Longitude
Unknown
Altitude
Unknown
Speed
Unknown
Apparent Right ascension
Unknown
Apparent Declination
Unknown
Sunlit
N/A
Visualization observer readout
Local Sidereal Time
12:48:07
Azimuth
Unknown
Elevation
Unknown
Doppler factor
Unknown
Orbital elements
Apogee altitude
35,796.3 km
Perigee altitude
35,779.847 km
Semi-major axis
42,166.211 km
Eccentricity
0.0002
Inclination
0.0698°
RAAN
152.8136°
Arg. of periapsis
330.9762°
True anomaly
250.25806°
Mean anomaly
250.2791°
Eccentric anomaly
250.26858°
Mean motion
0.25067 °/min
Orbital period
1,436.17 mins
BSTAR
0
Loading maneuver chart data...
Computing Atmospheric mass density...
Loading historical data...
Loading historical data...
Loading historical data...
Loading historical data...
Loading historical data...
Loading historical data...
Loading historical data...
Other satellites on launch #252 in the year 2024 (2024-12-29 UTC)

Documentation

Showing up to 5 results
|